| time (UTC) | temp F | wind direction | speed knots | gust knots | rain 1hr in | rain 24hr in | rain mn in | humidity % | barometer mb |
| 20260904232931 | 70 | 148 | 3.5 | 7.0 | 0.00 | 0.00 | 0.00 | 59 | 1013.7 |
| 20260904232431 | 70 | 231 | 4.3 | 7.8 | 0.00 | 0.00 | 0.00 | 66 | 1013.7 |
| 20260904231929 | 70 | 190 | 5.2 | 9.6 | 0.00 | 0.00 | 0.00 | 71 | 1013.7 |
| 20260904231429 | 70 | 158 | 6.1 | 10.4 | 0.00 | 0.00 | 0.00 | 67 | 1013.7 |
| 20260904230929 | 71 | 171 | 5.2 | 10.4 | 0.00 | 0.00 | 0.00 | 64 | 1013.7 |
| 20260904230434 | 69 | 163 | 5.2 | 8.7 | 0.00 | 0.00 | 0.00 | 64 | 1013.8 |
| 20260904230429 | 71 | 173 | 5.2 | 8.7 | 0.00 | 0.00 | 0.00 | 68 | 1013.7 |
| 20260904225428 | 69 | 162 | 5.2 | 8.7 | 0.00 | 0.00 | 0.00 | 65 | 1013.8 |
| 20260904224929 | 69 | 171 | 6.1 | 8.7 | 0.00 | 0.00 | 0.00 | 65 | 1013.8 |
| 20260904224429 | 69 | 164 | 6.1 | 8.7 | 0.00 | 0.00 | 0.00 | 74 | 1013.9 |
| 20260904223929 | 69 | 161 | 6.1 | 10.4 | 0.00 | 0.00 | 0.00 | 69 | 1013.9 |
| 20260904223428 | 69 | 179 | 7.0 | 10.4 | 0.00 | 0.00 | 0.00 | 68 | 1013.9 |
| 20260904222931 | 69 | 163 | 6.1 | 10.4 | 0.00 | 0.00 | 0.00 | 64 | 1013.9 |
| 20260904222927 | 69 | 178 | 7.0 | 9.6 | 0.00 | 0.00 | 0.00 | 72 | 1013.9 |
| 20260904221926 | 68 | 157 | 7.0 | 10.4 | 0.00 | 0.00 | 0.00 | 63 | 1013.9 |
| 20260904221427 | 68 | 161 | 7.0 | 10.4 | 0.00 | 0.00 | 0.00 | 69 | 1013.9 |
| 20260904220927 | 68 | 158 | 7.0 | 10.4 | 0.00 | 0.00 | 0.00 | 66 | 1013.9 |
| 20260904220426 | 68 | 163 | 7.8 | 12.2 | 0.00 | 0.00 | 0.00 | 76 | 1013.8 |
| 20260904215927 | 69 | 155 | 7.8 | 13.0 | 0.00 | 0.00 | 0.00 | 78 | 1013.9 |
| 20260904215431 | 69 | 189 | 6.1 | 11.3 | 0.00 | 0.00 | 0.00 | 77 | 1013.9 |
| 20260904215427 | 70 | 159 | 7.0 | 13.0 | 0.00 | 0.00 | 0.00 | 76 | 1013.9 |
| 20260904214427 | 69 | 189 | 6.1 | 9.6 | 0.00 | 0.00 | 0.00 | 74 | 1014.1 |
| 20260904213927 | 68 | 141 | 6.1 | 10.4 | 0.00 | 0.00 | 0.00 | 74 | 1014.1 |
| 20260904213426 | 68 | 175 | 6.1 | 10.4 | 0.00 | 0.00 | 0.00 | 76 | 1014.0 |
| 20260904212927 | 68 | 145 | 7.0 | 11.3 | 0.00 | 0.00 | 0.00 | 77 | 1014.0 |
| 20260904212427 | 67 | 144 | 7.0 | 11.3 | 0.00 | 0.00 | 0.00 | 77 | 1014.1 |
| 20260904211926 | 67 | 151 | 6.1 | 10.4 | 0.00 | 0.00 | 0.00 | 78 | 1014.0 |
| 20260904211427 | 67 | 185 | 6.1 | 11.3 | 0.00 | 0.00 | 0.00 | 79 | 1014.1 |
| 20260904210929 | 69 | 182 | 7.0 | 10.4 | 0.00 | 0.00 | 0.00 | 75 | 1014.0 |
| 20260904210925 | 68 | 166 | 7.0 | 11.3 | 0.00 | 0.00 | 0.00 | 76 | 1014.2 |
| 20260904205924 | 70 | 163 | 6.1 | 10.4 | 0.00 | 0.00 | 0.00 | 75 | 1014.0 |
| 20260904205424 | 70 | 132 | 6.1 | 9.6 | 0.00 | 0.00 | 0.00 | 75 | 1014.0 |
| 20260904204925 | 70 | 157 | 6.1 | 9.6 | 0.00 | 0.00 | 0.00 | 74 | 1013.9 |
| 20260904204425 | 70 | 142 | 4.3 | 7.8 | 0.00 | 0.00 | 0.00 | 72 | 1014.0 |
| 20260904203925 | 70 | 151 | 4.3 | 7.8 | 0.00 | 0.00 | 0.00 | 72 | 1013.9 |
| 20260904203423 | 70 | 136 | 4.3 | 7.8 | 0.00 | 0.00 | 0.00 | 73 | 1014.0 |
| 20260904202923 | 70 | 183 | 5.2 | 8.7 | 0.00 | 0.00 | 0.00 | 73 | 1014.1 |
| 20260904202423 | 70 | 143 | 6.1 | 8.7 | 0.00 | 0.00 | 0.00 | 72 | 1014.1 |
| 20260904201923 | 70 | 144 | 5.2 | 8.7 | 0.00 | 0.00 | 0.00 | 73 | 1014.1 |
| 20260904201427 | 69 | 171 | 5.2 | 8.7 | 0.00 | 0.00 | 0.00 | 74 | 1014.2 |
| 20260904201423 | 70 | 136 | 4.3 | 8.7 | 0.00 | 0.00 | 0.00 | 72 | 1014.2 |
| 20260904200427 | 69 | 138 | 4.3 | 7.8 | 0.00 | 0.00 | 0.00 | 74 | 1014.1 |
| 20260904200423 | 68 | 134 | 5.2 | 7.8 | 0.00 | 0.00 | 0.00 | 73 | 1014.2 |
| 20260904195423 | 68 | 154 | 4.3 | 8.7 | 0.00 | 0.00 | 0.00 | 75 | 1014.3 |
| 20260904194922 | 68 | 126 | 5.2 | 10.4 | 0.00 | 0.00 | 0.00 | 75 | 1014.3 |
| 20260904194422 | 67 | 119 | 5.2 | 10.4 | 0.00 | 0.00 | 0.00 | 76 | 1014.4 |
| 20260904193923 | 67 | 165 | 6.1 | 8.7 | 0.00 | 0.00 | 0.00 | 76 | 1014.4 |
| 20260904193423 | 68 | 172 | 5.2 | 10.4 | 0.00 | 0.00 | 0.00 | 75 | 1014.5 |
| 20260904192927 | 68 | 158 | 5.2 | 8.7 | 0.00 | 0.00 | 0.00 | 75 | 1014.5 |
| 20260904192923 | 68 | 169 | 4.3 | 10.4 | 0.00 | 0.00 | 0.00 | 75 | 1014.5 |
| 20260904191922 | 68 | 122 | 5.2 | 8.7 | 0.00 | 0.00 | 0.00 | 74 | 1014.5 |
| 20260904191422 | 68 | 169 | 4.3 | 8.7 | 0.00 | 0.00 | 0.00 | 74 | 1014.5 |
| 20260904190927 | 68 | 142 | 5.2 | 9.6 | 0.00 | 0.00 | 0.00 | 75 | 1014.6 |
| 20260904190922 | 68 | 161 | 5.2 | 8.7 | 0.00 | 0.00 | 0.00 | 75 | 1014.6 |
| 20260904185922 | 68 | 168 | 5.2 | 9.6 | 0.00 | 0.00 | 0.00 | 75 | 1014.8 |
| 20260904185422 | 68 | 183 | 3.5 | 8.7 | 0.00 | 0.00 | 0.00 | 76 | 1014.6 |
| 20260904184926 | 68 | 95 | 4.3 | 7.8 | 0.00 | 0.00 | 0.00 | 76 | 1014.8 |
| 20260904184923 | 69 | 154 | 3.5 | 7.8 | 0.00 | 0.00 | 0.00 | 76 | 1014.8 |
| 20260904183922 | 68 | 136 | 2.6 | 6.1 | 0.00 | 0.00 | 0.00 | 77 | 1014.9 |
| 20260904183426 | 67 | 118 | 4.3 | 8.7 | 0.00 | 0.00 | 0.00 | 76 | 1014.9 |
| 20260904183422 | 68 | 132 | 3.5 | 7.8 | 0.00 | 0.00 | 0.00 | 78 | 1014.9 |
| 20260904182423 | 67 | 82 | 4.3 | 8.7 | 0.00 | 0.00 | 0.00 | 77 | 1015.0 |
| 20260904181926 | 67 | 151 | 3.5 | 7.8 | 0.00 | 0.00 | 0.00 | 77 | 1014.9 |
| 20260904181922 | 67 | 192 | 3.5 | 8.7 | 0.00 | 0.00 | 0.00 | 76 | 1015.0 |
| 20260904180927 | 66 | 134 | 4.3 | 9.6 | 0.00 | 0.00 | 0.00 | 80 | 1014.9 |
| 20260904180922 | 66 | 101 | 3.5 | 7.8 | 0.00 | 0.00 | 0.00 | 78 | 1014.9 |
| 20260904175920 | 65 | 165 | 5.2 | 9.6 | 0.00 | 0.00 | 0.00 | 81 | 1014.9 |
| 20260904175420 | 65 | 165 | 6.1 | 9.6 | 0.00 | 0.00 | 0.00 | 81 | 1015.0 |
| 20260904174920 | 65 | 170 | 5.2 | 9.6 | 0.00 | 0.00 | 0.00 | 80 | 1015.0 |
| 20260904174420 | 66 | 178 | 4.3 | 8.7 | 0.00 | 0.00 | 0.00 | 79 | 1014.9 |
| 20260904173920 | 66 | 182 | 3.5 | 7.0 | 0.00 | 0.00 | 0.00 | 79 | 1014.9 |
| 20260904173421 | 66 | 176 | 3.5 | 7.0 | 0.00 | 0.00 | 0.00 | 80 | 1014.8 |
| 20260904172926 | 65 | 188 | 4.3 | 7.8 | 0.00 | 0.00 | 0.00 | 81 | 1014.8 |
| 20260904172921 | 66 | 192 | 3.5 | 7.0 | 0.00 | 0.00 | 0.00 | 81 | 1014.8 |
| 20260904172527 | 65 | 140 | 5.2 | 8.7 | 0.00 | 0.00 | 0.00 | 82 | 1014.6 |
| 20260904172028 | 65 | 159 | 5.2 | 8.7 | 0.00 | 0.00 | 0.00 | 80 | 1014.5 |
| 20260904170920 | 65 | 176 | 3.5 | 7.0 | 0.00 | 0.00 | 0.00 | 83 | 1014.5 |
| 20260904170420 | 65 | 187 | 2.6 | 6.1 | 0.00 | 0.00 | 0.00 | 82 | 1014.4 |
| 20260904165920 | 64 | 154 | 2.6 | 6.1 | 0.00 | 0.00 | 0.00 | 85 | 1014.4 |
| 20260904165418 | 64 | 194 | 1.7 | 6.1 | 0.00 | 0.00 | 0.00 | 86 | 1014.4 |
| 20260904164918 | 63 | 115 | 1.7 | 6.1 | 0.00 | 0.00 | 0.00 | 89 | 1014.3 |
| 20260904164419 | 62 | 120 | 2.6 | 6.1 | 0.00 | 0.00 | 0.00 | 90 | 1014.3 |
| 20260904163925 | 61 | 69 | 3.5 | 8.7 | 0.00 | 0.00 | 0.00 | 95 | 1014.2 |
| 20260904163918 | 63 | 136 | 2.6 | 7.8 | 0.00 | 0.00 | 0.00 | 93 | 1014.3 |
| 20260904162916 | 61 | 141 | 4.3 | 8.7 | 0.00 | 0.00 | 0.00 | 95 | 1014.2 |
| 20260904162417 | 60 | 150 | 3.5 | 8.7 | 0.00 | 0.00 | 0.00 | 96 | 1014.2 |
| 20260904161917 | 60 | 148 | 0.9 | 7.0 | 0.00 | 0.00 | 0.00 | 97 | 1014.1 |
| 20260904161417 | 60 | 198 | 0.0 | 0.0 | 0.00 | 0.00 | 0.00 | 97 | 1014.1 |
| 20260904160915 | 60 | 118 | 0.0 | 0.0 | 0.00 | 0.00 | 0.00 | 97 | 1014.0 |
| 20260904160416 | 60 | 90 | 0.0 | 3.5 | 0.00 | 0.00 | 0.00 | 97 | 1014.0 |
| 20260904155916 | 59 | 132 | 0.0 | 3.5 | 0.00 | 0.00 | 0.00 | 97 | 1013.9 |
| 20260904155416 | 59 | 132 | 1.7 | 6.1 | 0.00 | 0.00 | 0.00 | 97 | 1013.9 |
| 20260904154914 | 59 | 107 | 2.6 | 7.8 | 0.00 | 0.00 | 0.00 | 97 | 1013.9 |
| 20260904154414 | 59 | 137 | 0.9 | 7.8 | 0.00 | 0.00 | 0.00 | 97 | 1013.9 |
| 20260904153914 | 58 | 115 | 0.0 | 0.0 | 0.00 | 0.00 | 0.00 | 97 | 1013.9 |
| 20260904153414 | 58 | 102 | 0.0 | 0.0 | 0.00 | 0.00 | 0.00 | 97 | 1013.9 |
| 20260904152914 | 58 | 103 | 0.0 | 0.0 | 0.00 | 0.00 | 0.00 | 97 | 1013.8 |
| 20260904152418 | 58 | 47 | 0.0 | 0.0 | 0.00 | 0.00 | 0.00 | 97 | 1013.8 |
| 20260904152414 | 58 | 102 | 0.0 | 0.0 | 0.00 | 0.00 | 0.00 | 97 | 1013.8 |
| 20260904151416 | 58 | 43 | 0.0 | 0.0 | 0.00 | 0.00 | 0.00 | 97 | 1013.8 |
| 20260904150911 | 58 | 55 | 0.0 | 0.0 | 0.00 | 0.00 | 0.00 | 97 | 1013.7 |
| 20260904150416 | 58 | 73 | 0.0 | 0.9 | 0.00 | 0.00 | 0.00 | 97 | 1013.8 |
| 20260904150411 | 58 | 67 | 0.0 | 0.9 | 0.00 | 0.00 | 0.00 | 97 | 1013.7 |
| 20260904145410 | 57 | 113 | 0.0 | 0.0 | 0.00 | 0.00 | 0.00 | 97 | 1013.7 |
| 20260904144910 | 57 | 95 | 0.0 | 0.0 | 0.00 | 0.00 | 0.00 | 97 | 1013.6 |
| 20260904144408 | 57 | 101 | 0.0 | 0.0 | 0.00 | 0.00 | 0.00 | 97 | 1013.6 |
| 20260904143908 | 58 | 101 | 0.0 | 0.0 | 0.00 | 0.00 | 0.00 | 97 | 1013.5 |
| 20260904143407 | 57 | 108 | 0.0 | 0.0 | 0.00 | 0.00 | 0.00 | 97 | 1013.5 |
| 20260904142906 | 57 | 126 | 0.0 | 0.0 | 0.00 | 0.00 | 0.00 | 97 | 1013.5 |
| 20260904142405 | 57 | 104 | 0.0 | 0.0 | 0.00 | 0.00 | 0.00 | 97 | 1013.5 |
| 20260904141905 | 57 | 108 | 0.0 | 0.0 | 0.00 | 0.00 | 0.00 | 97 | 1013.4 |
| 20260904141407 | 57 | 93 | 0.0 | 0.0 | 0.00 | 0.00 | 0.00 | 97 | 1013.2 |
| 20260904140907 | 57 | 58 | 0.0 | 0.0 | 0.00 | 0.00 | 0.00 | 97 | 1013.1 |
| 20260904140903 | 57 | 88 | 0.0 | 0.0 | 0.00 | 0.00 | 0.00 | 97 | 1013.2 |
| 20260904135908 | 57 | 32 | 0.0 | 0.0 | 0.00 | 0.00 | 0.00 | 97 | 1012.9 |
| 20260904135904 | 57 | 38 | 0.0 | 0.0 | 0.00 | 0.00 | 0.00 | 97 | 1013.0 |
| 20260904134907 | 57 | 34 | 1.7 | 4.3 | 0.00 | 0.00 | 0.00 | 97 | 1012.8 |
| 20260904134903 | 57 | 36 | 0.0 | 0.0 | 0.00 | 0.00 | 0.00 | 97 | 1012.9 |
| 20260904133859 | 57 | 40 | 2.6 | 5.2 | 0.00 | 0.00 | 0.00 | 97 | 1012.8 |
| 20260904133405 | 57 | 38 | 0.0 | 1.7 | 0.00 | 0.00 | 0.00 | 97 | 1012.8 |
| 20260904133359 | 57 | 51 | 0.9 | 5.2 | 0.00 | 0.00 | 0.00 | 97 | 1012.8 |
| 20260904132359 | 57 | 42 | 0.9 | 4.3 | 0.00 | 0.00 | 0.00 | 97 | 1012.8 |
| 20260904131900 | 57 | 76 | 2.6 | 5.2 | 0.00 | 0.00 | 0.00 | 97 | 1012.8 |
| 20260904131359 | 57 | 64 | 3.5 | 6.1 | 0.00 | 0.00 | 0.00 | 97 | 1012.9 |
| 20260904130900 | 57 | 76 | 2.6 | 6.1 | 0.00 | 0.00 | 0.00 | 97 | 1012.8 |
| 20260904130400 | 58 | 92 | 0.9 | 6.1 | 0.00 | 0.00 | 0.00 | 97 | 1012.9 |
| 20260904125900 | 58 | 101 | 0.0 | 3.5 | 0.00 | 0.00 | 0.00 | 97 | 1012.9 |
| 20260904125400 | 58 | 86 | 0.0 | 5.2 | 0.00 | 0.00 | 0.00 | 97 | 1012.7 |
| 20260904124900 | 57 | 86 | 1.7 | 5.2 | 0.00 | 0.00 | 0.00 | 97 | 1012.8 |
| 20260904124405 | 58 | 103 | 3.5 | 7.0 | 0.00 | 0.00 | 0.00 | 96 | 1012.7 |
| 20260904124400 | 58 | 76 | 2.6 | 6.1 | 0.00 | 0.00 | 0.00 | 97 | 1012.7 |
| 20260904123405 | 58 | 92 | 3.5 | 7.0 | 0.00 | 0.00 | 0.00 | 96 | 1012.6 |
| 20260904123359 | 58 | 97 | 3.5 | 7.0 | 0.00 | 0.00 | 0.00 | 96 | 1012.7 |
| 20260904122403 | 58 | 106 | 3.5 | 6.1 | 0.00 | 0.00 | 0.00 | 96 | 1012.6 |
| 20260904122357 | 58 | 113 | 3.5 | 6.1 | 0.00 | 0.00 | 0.00 | 96 | 1012.6 |
| 20260904121357 | 58 | 88 | 3.5 | 6.1 | 0.00 | 0.00 | 0.00 | 96 | 1012.6 |
| 20260904120857 | 58 | 93 | 3.5 | 8.7 | 0.00 | 0.00 | 0.00 | 96 | 1012.5 |
| 20260904120357 | 58 | 125 | 4.3 | 8.7 | 0.00 | 0.00 | 0.00 | 96 | 1012.6 |
| 20260904115858 | 58 | 96 | 5.2 | 8.7 | 0.00 | 0.00 | 0.00 | 96 | 1012.5 |
| 20260904115358 | 58 | 102 | 6.1 | 8.7 | 0.00 | 0.00 | 0.00 | 96 | 1012.6 |
| 20260904114857 | 58 | 112 | 6.1 | 9.6 | 0.00 | 0.00 | 0.00 | 96 | 1012.6 |
| 20260904114357 | 58 | 105 | 6.1 | 9.6 | 0.00 | 0.00 | 0.00 | 96 | 1012.6 |
| 20260904113857 | 58 | 98 | 4.3 | 7.8 | 0.00 | 0.00 | 0.00 | 96 | 1012.6 |
| 20260904113357 | 58 | 109 | 4.3 | 8.7 | 0.00 | 0.00 | 0.00 | 96 | 1012.6 |
| 20260904112858 | 58 | 105 | 6.1 | 8.7 | 0.00 | 0.00 | 0.00 | 96 | 1012.6 |
| 20260904112356 | 58 | 110 | 5.2 | 7.8 | 0.00 | 0.00 | 0.00 | 96 | 1012.5 |
| 20260904111855 | 58 | 102 | 6.1 | 8.7 | 0.00 | 0.00 | 0.00 | 96 | 1012.6 |
| 20260904111355 | 58 | 98 | 7.0 | 8.7 | 0.00 | 0.00 | 0.00 | 95 | 1012.6 |
| 20260904110855 | 58 | 110 | 7.0 | 9.6 | 0.00 | 0.00 | 0.00 | 95 | 1012.7 |
| 20260904110356 | 58 | 103 | 7.0 | 9.6 | 0.00 | 0.00 | 0.00 | 95 | 1012.7 |
| 20260904105859 | 58 | 105 | 7.8 | 10.4 | 0.00 | 0.00 | 0.00 | 95 | 1012.6 |
| 20260904105855 | 58 | 118 | 7.8 | 10.4 | 0.00 | 0.00 | 0.00 | 95 | 1012.7 |
| 20260904104855 | 58 | 111 | 7.0 | 10.4 | 0.00 | 0.00 | 0.00 | 95 | 1012.7 |
| 20260904104353 | 58 | 97 | 7.8 | 10.4 | 0.00 | 0.00 | 0.00 | 95 | 1012.6 |
| 20260904103851 | 58 | 109 | 7.8 | 10.4 | 0.00 | 0.00 | 0.00 | 95 | 1012.6 |
| 20260904103351 | 59 | 107 | 7.0 | 10.4 | 0.00 | 0.00 | 0.00 | 94 | 1012.6 |
| 20260904102850 | 59 | 94 | 7.0 | 11.3 | 0.00 | 0.00 | 0.00 | 94 | 1012.6 |
| 20260904102351 | 59 | 105 | 7.8 | 11.3 | 0.00 | 0.00 | 0.00 | 94 | 1012.6 |
| 20260904101851 | 59 | 101 | 8.7 | 11.3 | 0.00 | 0.00 | 0.00 | 94 | 1012.5 |
| 20260904101351 | 59 | 98 | 8.7 | 11.3 | 0.00 | 0.00 | 0.00 | 93 | 1012.5 |
| 20260904100856 | 59 | 84 | 7.8 | 11.3 | 0.00 | 0.00 | 0.00 | 93 | 1012.5 |
| 20260904100851 | 59 | 86 | 7.8 | 11.3 | 0.00 | 0.00 | 0.00 | 93 | 1012.5 |
| 20260904095851 | 59 | 99 | 8.7 | 11.3 | 0.00 | 0.00 | 0.00 | 92 | 1012.6 |
| 20260904095351 | 59 | 90 | 7.8 | 10.4 | 0.00 | 0.00 | 0.00 | 91 | 1012.5 |
| 20260904094851 | 60 | 90 | 7.8 | 9.6 | 0.00 | 0.00 | 0.00 | 91 | 1012.6 |
| 20260904094351 | 60 | 90 | 8.7 | 9.6 | 0.00 | 0.00 | 0.00 | 90 | 1012.6 |
| 20260904093848 | 60 | 83 | 7.8 | 9.6 | 0.00 | 0.00 | 0.00 | 90 | 1012.6 |
| 20260904093350 | 60 | 86 | 7.0 | 8.7 | 0.00 | 0.00 | 0.00 | 89 | 1012.6 |
| 20260904092849 | 60 | 74 | 6.1 | 7.8 | 0.00 | 0.00 | 0.00 | 89 | 1012.5 |
| 20260904092354 | 60 | 87 | 5.2 | 7.8 | 0.00 | 0.00 | 0.00 | 88 | 1012.5 |
| 20260904092350 | 60 | 88 | 6.1 | 7.8 | 0.00 | 0.00 | 0.00 | 88 | 1012.5 |
| 20260904091349 | 60 | 84 | 4.3 | 7.0 | 0.00 | 0.00 | 0.00 | 88 | 1012.5 |
| 20260904090848 | 60 | 86 | 5.2 | 7.8 | 0.00 | 0.00 | 0.00 | 87 | 1012.6 |
| 20260904090348 | 60 | 84 | 6.1 | 7.8 | 0.00 | 0.00 | 0.00 | 87 | 1012.5 |
| 20260904085852 | 61 | 79 | 5.2 | 7.8 | 0.00 | 0.00 | 0.00 | 87 | 1012.5 |
| 20260904085848 | 61 | 68 | 6.1 | 7.8 | 0.00 | 0.00 | 0.00 | 86 | 1012.7 |
| 20260904085459 | 61 | 86 | 5.2 | 7.0 | 0.00 | 0.00 | 0.00 | 85 | 1012.7 |
| 20260904085452 | 61 | 78 | 5.2 | 7.8 | 0.00 | 0.00 | 0.00 | 86 | 1012.6 |
| 20260904083847 | 62 | 91 | 5.2 | 8.7 | 0.00 | 0.00 | 0.00 | 84 | 1012.7 |
| 20260904083347 | 62 | 98 | 6.1 | 8.7 | 0.00 | 0.00 | 0.00 | 82 | 1012.7 |
| 20260904082846 | 62 | 91 | 6.1 | 8.7 | 0.00 | 0.00 | 0.00 | 78 | 1012.7 |
| 20260904082346 | 61 | 88 | 7.0 | 8.7 | 0.00 | 0.00 | 0.00 | 77 | 1012.8 |
| 20260904081847 | 61 | 86 | 7.8 | 9.6 | 0.00 | 0.00 | 0.00 | 75 | 1012.7 |
| 20260904081346 | 61 | 86 | 7.8 | 9.6 | 0.00 | 0.00 | 0.00 | 78 | 1012.8 |
| 20260904080847 | 61 | 90 | 7.8 | 9.6 | 0.00 | 0.00 | 0.00 | 80 | 1012.9 |
| 20260904080345 | 61 | 90 | 7.8 | 9.6 | 0.00 | 0.00 | 0.00 | 80 | 1012.9 |
| 20260904075849 | 62 | 92 | 7.8 | 9.6 | 0.00 | 0.00 | 0.00 | 75 | 1013.0 |
| 20260904075845 | 62 | 98 | 7.8 | 9.6 | 0.00 | 0.00 | 0.00 | 78 | 1012.9 |
| 20260904074848 | 62 | 100 | 7.0 | 8.7 | 0.00 | 0.00 | 0.00 | 70 | 1013.1 |
| 20260904074844 | 62 | 101 | 7.0 | 8.7 | 0.00 | 0.00 | 0.00 | 70 | 1013.1 |
| 20260904073844 | 62 | 97 | 7.0 | 8.7 | 0.00 | 0.00 | 0.00 | 66 | 1013.0 |
| 20260904073344 | 62 | 98 | 7.0 | 8.7 | 0.00 | 0.00 | 0.00 | 66 | 1013.0 |
| 20260904072844 | 62 | 96 | 7.0 | 8.7 | 0.00 | 0.00 | 0.00 | 65 | 1013.0 |
| 20260904072344 | 63 | 98 | 7.0 | 8.7 | 0.00 | 0.00 | 0.00 | 66 | 1013.0 |
| 20260904071849 | 63 | 97 | 7.0 | 8.7 | 0.00 | 0.00 | 0.00 | 65 | 1012.9 |
| 20260904071844 | 63 | 96 | 7.0 | 8.7 | 0.00 | 0.00 | 0.00 | 65 | 1012.9 |
| 20260904070845 | 63 | 96 | 7.0 | 8.7 | 0.00 | 0.00 | 0.00 | 66 | 1012.9 |
| 20260904070348 | 64 | 96 | 7.0 | 8.7 | 0.00 | 0.00 | 0.00 | 54 | 1012.8 |
| 20260904070344 | 64 | 94 | 7.0 | 8.7 | 0.00 | 0.00 | 0.00 | 61 | 1012.8 |
| 20260904065349 | 64 | 103 | 6.1 | 8.7 | 0.00 | 0.00 | 0.00 | 58 | 1012.9 |
| 20260904065345 | 64 | 102 | 6.1 | 7.8 | 0.00 | 0.00 | 0.00 | 56 | 1012.9 |
| 20260904064955 | 64 | 96 | 6.1 | 7.8 | 0.00 | 0.00 | 0.00 | 59 | 1012.9 |
| 20260904064948 | 64 | 101 | 7.0 | 8.7 | 0.00 | 0.00 | 0.00 | 56 | 1012.9 |
| 20260904063342 | 64 | 89 | 6.1 | 7.8 | 0.00 | 0.00 | 0.00 | 61 | 1012.8 |
| 20260904062842 | 64 | 90 | 6.1 | 7.8 | 0.00 | 0.00 | 0.00 | 57 | 1012.8 |
| 20260904062346 | 64 | 89 | 6.1 | 7.8 | 0.00 | 0.00 | 0.00 | 57 | 1012.8 |
| 20260904062342 | 64 | 92 | 6.1 | 7.8 | 0.00 | 0.00 | 0.00 | 58 | 1012.9 |
| 20260904061342 | 64 | 92 | 6.1 | 7.8 | 0.00 | 0.00 | 0.00 | 57 | 1012.8 |
| 20260904060840 | 64 | 77 | 5.2 | 7.8 | 0.00 | 0.00 | 0.00 | 60 | 1012.7 |
| 20260904060340 | 64 | 78 | 4.3 | 7.0 | 0.00 | 0.00 | 0.00 | 63 | 1012.8 |
| 20260904055846 | 64 | 59 | 4.3 | 5.2 | 0.00 | 0.00 | 0.00 | 77 | 1012.7 |
| 20260904055840 | 64 | 61 | 4.3 | 5.2 | 0.00 | 0.00 | 0.00 | 75 | 1012.7 |
| 20260904054840 | 64 | 42 | 5.2 | 7.0 | 0.00 | 0.00 | 0.00 | 77 | 1012.8 |
| 20260904054338 | 64 | 40 | 5.2 | 7.0 | 0.00 | 0.00 | 0.00 | 76 | 1012.8 |
| 20260904053842 | 64 | 32 | 5.2 | 7.0 | 0.00 | 0.00 | 0.00 | 78 | 1012.9 |
| 20260904053837 | 64 | 32 | 5.2 | 7.0 | 0.00 | 0.00 | 0.00 | 79 | 1012.8 |
| 20260904052836 | 64 | 32 | 5.2 | 7.0 | 0.00 | 0.00 | 0.00 | 79 | 1012.9 |
| 20260904052339 | 64 | 32 | 5.2 | 7.0 | 0.00 | 0.00 | 0.00 | 80 | 1012.8 |
| 20260904052335 | 64 | 32 | 4.3 | 7.0 | 0.00 | 0.00 | 0.00 | 81 | 1012.8 |
| 20260904051334 | 64 | 32 | 4.3 | 7.0 | 0.00 | 0.00 | 0.00 | 81 | 1012.9 |
| 20260904050833 | 64 | 24 | 4.3 | 5.2 | 0.00 | 0.00 | 0.00 | 81 | 1013.0 |
| 20260904050335 | 64 | 24 | 3.5 | 5.2 | 0.00 | 0.00 | 0.00 | 81 | 1013.0 |
| 20260904045834 | 65 | 22 | 3.5 | 4.3 | 0.00 | 0.00 | 0.00 | 81 | 1013.0 |
| 20260904045338 | 65 | 5 | 3.5 | 4.3 | 0.00 | 0.00 | 0.00 | 81 | 1013.0 |
| 20260904045334 | 65 | 18 | 3.5 | 4.3 | 0.00 | 0.00 | 0.00 | 81 | 1013.0 |
| 20260904044333 | 65 | 5 | 3.5 | 4.3 | 0.00 | 0.00 | 0.00 | 81 | 1012.9 |
| 20260904043834 | 65 | 5 | 3.5 | 4.3 | 0.00 | 0.00 | 0.00 | 82 | 1012.8 |
| 20260904043443 | 65 | 0 | 4.3 | 5.2 | 0.00 | 0.00 | 0.00 | 82 | 1012.9 |
| 20260904043334 | 65 | 5 | 3.5 | 4.3 | 0.00 | 0.00 | 0.00 | 82 | 1012.8 |
| 20260904042836 | 65 | 355 | 3.5 | 4.3 | 0.00 | 0.00 | 0.00 | 82 | 1012.9 |
| 20260904042832 | 65 | 0 | 3.5 | 4.3 | 0.00 | 0.00 | 0.00 | 82 | 1012.9 |
| 20260904041939 | 65 | 282 | 3.5 | 5.2 | 0.00 | 0.00 | 0.00 | 82 | 1012.8 |
| 20260904041332 | 65 | 5 | 4.3 | 5.2 | 0.00 | 0.00 | 0.00 | 82 | 1012.8 |
| 20260904040332 | 65 | 261 | 3.5 | 5.2 | 0.00 | 0.00 | 0.00 | 82 | 1012.8 |
| 20260904035837 | 65 | 228 | 0.9 | 3.5 | 0.00 | 0.00 | 0.00 | 81 | 1012.7 |
| 20260904035832 | 65 | 259 | 2.6 | 3.5 | 0.00 | 0.00 | 0.00 | 82 | 1012.7 |
| 20260904034832 | 65 | 205 | 0.0 | 0.9 | 0.00 | 0.00 | 0.00 | 81 | 1012.7 |
| 20260904034332 | 65 | 119 | 0.0 | 0.9 | 0.00 | 0.00 | 0.00 | 81 | 1012.7 |
| 20260904033830 | 65 | 119 | 0.0 | 0.9 | 0.00 | 0.00 | 0.00 | 81 | 1012.6 |
| 20260904033330 | 65 | 119 | 0.0 | 0.0 | 0.00 | 0.00 | 0.00 | 80 | 1012.5 |
| 20260904032829 | 65 | 119 | 0.0 | 3.5 | 0.00 | 0.00 | 0.00 | 80 | 1012.5 |
| 20260904032330 | 65 | 119 | 0.0 | 3.5 | 0.00 | 0.00 | 0.00 | 80 | 1012.5 |
| 20260904031830 | 65 | 119 | 0.9 | 3.5 | 0.00 | 0.00 | 0.00 | 80 | 1012.4 |
| 20260904031330 | 65 | 119 | 0.9 | 3.5 | 0.00 | 0.00 | 0.00 | 80 | 1012.4 |
| 20260904030830 | 65 | 117 | 0.0 | 2.6 | 0.00 | 0.00 | 0.00 | 79 | 1012.4 |
| 20260904030330 | 65 | 174 | 0.9 | 2.6 | 0.00 | 0.00 | 0.00 | 80 | 1012.4 |
| 20260904025829 | 65 | 174 | 0.9 | 2.6 | 0.00 | 0.00 | 0.00 | 80 | 1012.4 |
| 20260904025334 | 66 | 180 | 0.0 | 1.7 | 0.00 | 0.00 | 0.00 | 77 | 1012.3 |
| 20260904025329 | 66 | 178 | 0.0 | 2.6 | 0.00 | 0.00 | 0.00 | 79 | 1012.4 |
| 20260904024828 | 66 | 178 | 0.0 | 0.9 | 0.00 | 0.00 | 0.00 | 78 | 1012.3 |
| 20260904023826 | 66 | 182 | 0.9 | 2.6 | 0.00 | 0.00 | 0.00 | 77 | 1012.3 |
| 20260904023325 | 67 | 184 | 0.9 | 2.6 | 0.00 | 0.00 | 0.00 | 76 | 1012.4 |
| 20260904022826 | 67 | 232 | 0.0 | 2.6 | 0.00 | 0.00 | 0.00 | 75 | 1012.3 |
| 20260904022323 | 67 | 317 | 0.9 | 2.6 | 0.00 | 0.00 | 0.00 | 75 | 1012.3 |
| 20260904021824 | 67 | 319 | 0.9 | 2.6 | 0.00 | 0.00 | 0.00 | 73 | 1012.3 |
| 20260904021327 | 68 | 313 | 1.7 | 5.2 | 0.00 | 0.00 | 0.00 | 73 | 1012.3 |
| 20260904021323 | 68 | 311 | 2.6 | 5.2 | 0.00 | 0.00 | 0.00 | 72 | 1012.4 |
| 20260904020322 | 68 | 265 | 2.6 | 5.2 | 0.00 | 0.00 | 0.00 | 72 | 1012.4 |
| 20260904015819 | 69 | 248 | 2.6 | 5.2 | 0.00 | 0.00 | 0.00 | 73 | 1012.4 |
| 20260904015320 | 69 | 247 | 2.6 | 5.2 | 0.00 | 0.00 | 0.00 | 72 | 1012.4 |
| 20260904014825 | 70 | 257 | 2.6 | 5.2 | 0.00 | 0.00 | 0.00 | 74 | 1012.3 |
| 20260904014820 | 70 | 244 | 1.7 | 5.2 | 0.00 | 0.00 | 0.00 | 74 | 1012.3 |
| 20260904013819 | 70 | 269 | 1.7 | 3.5 | 0.00 | 0.00 | 0.00 | 74 | 1012.3 |
| 20260904013319 | 71 | 277 | 0.9 | 3.5 | 0.00 | 0.00 | 0.00 | 69 | 1012.4 |
| 20260904012820 | 71 | 275 | 0.9 | 3.5 | 0.00 | 0.00 | 0.00 | 72 | 1012.4 |
| 20260904012320 | 71 | 275 | 0.9 | 3.5 | 0.00 | 0.00 | 0.00 | 72 | 1012.4 |
| 20260904011819 | 71 | 228 | 0.9 | 3.5 | 0.00 | 0.00 | 0.00 | 69 | 1012.4 |
| 20260904011319 | 71 | 228 | 0.9 | 3.5 | 0.00 | 0.00 | 0.00 | 70 | 1012.4 |
| 20260904010819 | 71 | 207 | 0.9 | 2.6 | 0.00 | 0.00 | 0.00 | 64 | 1012.5 |
| 20260904010319 | 71 | 200 | 0.0 | 2.6 | 0.00 | 0.00 | 0.00 | 70 | 1012.5 |
| 20260904005820 | 70 | 186 | 0.0 | 3.5 | 0.00 | 0.00 | 0.00 | 72 | 1012.5 |
| 20260904005320 | 70 | 196 | 0.0 | 3.5 | 0.00 | 0.00 | 0.00 | 68 | 1012.5 |
| 20260904004819 | 69 | 199 | 0.0 | 3.5 | 0.00 | 0.00 | 0.00 | 68 | 1012.5 |
| 20260904004319 | 69 | 196 | 0.9 | 3.5 | 0.00 | 0.00 | 0.00 | 64 | 1012.5 |
| 20260904003825 | 68 | 199 | 2.6 | 6.1 | 0.00 | 0.00 | 0.00 | 78 | 1012.6 |
| 20260904003819 | 68 | 233 | 1.7 | 4.3 | 0.00 | 0.00 | 0.00 | 73 | 1012.6 |
| 20260904003423 | 68 | 211 | 2.6 | 5.2 | 0.00 | 0.00 | 0.00 | 75 | 1012.7 |
| 20260904002924 | 68 | 188 | 2.6 | 6.1 | 0.00 | 0.00 | 0.00 | 79 | 1012.6 |
| 20260904002425 | 67 | 211 | 2.6 | 7.8 | 0.00 | 0.00 | 0.00 | 77 | 1012.6 |
| 20260904001317 | 67 | 220 | 2.6 | 7.8 | 0.00 | 0.00 | 0.00 | 82 | 1012.7 |
| 20260904000818 | 67 | 192 | 3.5 | 7.8 | 0.00 | 0.00 | 0.00 | 82 | 1012.8 |
| 20260904000318 | 67 | 204 | 4.3 | 7.8 | 0.00 | 0.00 | 0.00 | 82 | 1012.8 |
| 20260903235817 | 67 | 209 | 4.3 | 7.8 | 0.00 | 0.00 | 0.00 | 82 | 1012.8 |
| 20260903235315 | 68 | 227 | 5.2 | 7.8 | 0.00 | 0.00 | 0.00 | 81 | 1012.8 |
| 20260903234815 | 68 | 209 | 4.3 | 7.8 | 0.00 | 0.00 | 0.00 | 80 | 1012.8 |
| 20260903234316 | 69 | 229 | 3.5 | 7.0 | 0.00 | 0.00 | 0.00 | 80 | 1012.9 |
| 20260903233815 | 68 | 174 | 4.3 | 7.0 | 0.00 | 0.00 | 0.00 | 78 | 1012.9 |
| 20260903233314 | 69 | 190 | 4.3 | 7.0 | 0.00 | 0.00 | 0.00 | 79 | 1013.0 |